Location: La Comballaz
(46.3780°N, 7.0817°E)
Time: 06:30:13
(UTC+00:00)

Cosmos 1328 - Pass Details

Date: 09 April 2020
Orbit: 540 x 544 km, 82.5° (Epoch: 29 May)

Event Time Altitude Azimuth Distance (km) Brightness Sun altitude
Rises 19:05:29 0° 350° (N) 2,722 7.9 -9.7°
Reaches altitude 10° 19:07:39 10° 349° (N) 1,824 7.0 -10.0°
Maximum altitude 19:11:40 81° 262° (W) 559 3.9 -10.6°
Drops below altitude 10° 19:15:39 10° 176° (S) 1,808 6.2 -11.3°
Sets 19:17:47 0° 175° (S) 2,696 7.1 -11.6°
